sat.trackr.live / text

‹ back to catalog

STARLINK-3601

NORAD 51804 · 2022-017AN

PAYLOAD ACTIVE UNKNOWN

§ Identity

Operator
Country
US
Launch date
2022-02-25
Launch site
AFWTR
Launch vehicle
Mass (kg)
RCS (m²)

Purposes: comms

External: N2YO · Heavens-Above · Gunter

§ Orbital elements

Epoch: 2026-09-20T02:33:22.720608Z

Period
93.85 min
Inclination
53.1604°
Eccentricity
0.0001244
Mean motion
15.34392073 rev/d
Perigee alt
461.9 km
Apogee alt
463.6 km
Semi-major
6,840.9 km
B*
1.8324e-5
RAAN
165.2104°
Arg perigee
96.1657°
Mean anomaly
263.9488°
Rev number
25,365

§ Raw data

STARLINK-36011 51804U 22017AN  26263.10651297  .00000243  00000+0  18324-4 0  99902 51804  53.1604 165.2104 0001244  96.1657 263.9488 15.34392073253651

JSON: /api/v1/satellites/51804 · /tle

For live sub-satellite position, see the globe view (requires WebGL).

§ Visibility from observer

Set your observer location to see the next 7 days of passes ≥ 10°. The values pass through the URL so the page stays shareable.

No JS? Fill the form by hand. The geolocation button needs JavaScript.